Regional Weather Roundup
Issued by NWS Charleston, SC

Current Version | Previous Version | Text Only | Print | Product List | Glossary Off
Versions: 1 2 3 4 5 6 7 8 9 10 11 12 13 14 15 16 17 18 19 20 21 22 23 24 25 26 27 28 29 30 31 32 33 34 35 36 37 38 39 40 41 42 43 44 45 46 47 48 49 50

000
ASUS42 KCHS 171325
RWRCHS

REGIONAL WEATHER ROUNDUP
NATIONAL WEATHER SERVICE CHARLESTON SC
800 AM EST WED DEC 17 2014

NOTE: "FAIR" INDICATES FEW OR NO CLOUDS BELOW 12,000 FEET WITH NO
SIGNIFICANT WEATHER AND/OR OBSTRUCTIONS TO VISIBILITY.

NOT ALL STATIONS ARE QUALITY CONTROLLED BY THE NATIONAL
WEATHER SERVICE. USE DATA WITH CAUTION...ESPECIALLY
DEWPOINT OBSERVATIONS.

SCZ027-030-031-034>040-042>050-171400-
...SOUTHEAST SOUTH CAROLINA...

CITY           SKY/WX    TMP DP  RH WIND       PRES   REMARKS
N CHARLESTON   CLEAR     44  38  79 NW7       30.15R
WATERFRONT PRK   N/A     46 N/A N/A NW6         N/A
MOUNT PLEASANT FAIR      45  39  81 NW5       30.15R
PINOPOLIS        N/A     46  41  81 W6        30.06S
MONCKS CORNER  FAIR      45  39  81 CALM      30.15R
SUMMERVILLE    FAIR      41  41 100 CALM      30.16S
BEAUFORT MCAS  PTCLDY    45  38  76 NW5       30.16R
BEAUFORT ARPT  FAIR      46  41  81 NW6       30.15S
HILTON HEAD IS NOT AVBL
WALTERBORO     SUNNY     43 N/A N/A CALM      30.16S
ALLENDALE      FAIR      43  39  87 W3        30.16S

...SOUTHERN MIDLANDS AND PEE DEE...

CITY           SKY/WX    TMP DP  RH WIND       PRES   REMARKS
GEORGETOWN     NOT AVBL
KINGSTREE      NOT AVBL
ORANGEBURG     CLEAR     37  34  89 CALM      30.15R
BARNWELL         N/A     39  37  93 CALM      30.17S
AIKEN          FAIR      37  37 100 W5        30.18R WCI  34
MANNING        NOT AVBL
COLUMBIA       PTCLDY    36  33  89 CALM      30.14R
SUMTER         CLEAR     41  37  86 W2        30.13R
FLORENCE       CLEAR     42  38  85 W5        30.12R
MYRTLE BEACH   CLEAR     45  39  81 NW7       30.14R
N MYRTLE BEACH CLEAR     45  40  82 NW5       30.11R

$$

GAZ063-065-086>088-099>101-113>116-118-119-134>141-150-171400-
...SOUTHEAST GEORGIA...

CITY           SKY/WX    TMP DP  RH WIND       PRES   REMARKS
SAVANNAH ARPT  CLEAR     44  37  76 W5        30.17R
HUNTER AAF     CLEAR     41  38  88 W5        30.16R
FORT STEWART   CLEAR     42  38  84 W2        30.16R
STATESBORO     CLEAR     40  40 100 CALM      30.17S
SYLVANIA       SUNNY     41  40  95 CALM      30.18R
CLAXTON        FAIR     N/A N/A N/A W3        30.18S

...CSRA...CENTRAL AND FAR SOUTHEAST GEORGIA...

CITY           SKY/WX    TMP DP  RH WIND       PRES   REMARKS
THOMSON        CLEAR     37  37 100 CALM      30.21R
AUGUSTA-BUSH   CLEAR     31  30  96 CALM      30.17S
AUGUSTA-DANIEL CLEAR     42  38  85 NW3       30.16S
SWAINSBORO     FAIR      41  41 100 NW3       30.19R
VIDALIA        CLEAR     43  39  87 NW6       30.19R
EASTMAN        FAIR      39  39 100 CALM      30.22S
HAZLEHURST     FAIR      43  41  94 NW3       30.19R
ALMA           CLEAR     40  37  89 N5        30.18S WCI  37
WAYCROSS       CLEAR     44  42  94 CALM      30.20R
JESUP          FAIR      41  39  93 NW3       30.19R
BAXLEY         FAIR      45  39  81 N6        30.18R
BRUNSWICK      CLEAR     45  41  87 W3        30.20R
SAINT SIMONS   CLEAR     46  40  79 MISG      30.19R

$$

SCZ027-028-034-036>038-045-046-048>050-GAZ119-141-171400-
...LAKE AND SUPPLEMENTAL COASTAL OBSERVATIONS...

STATION/POSITION TIME  TEMP    WIND        PRES    WAVE   SWELL
                       AIR SEA DIR/SP/G            HT/PER HT/PER/DIR
                 (UTC) (F)     (DEG/KT/KT) (MB)    (FT/S) (FT/S/D)
UPR LAKE MARION  NOT AVBL
WINYAH BAY       1300   45     290/  5     1020.0S
LAKE MURRAY      1300   43     280/  2/  6 1020.0S
ACE BASIN NERRS  1300   43     330/  2     1020.0S
FORT PULASKI     1300   45 56  300/  7/  8 1021.8R
SAPELO ISLAND    1300   45     300/  3     1022.0S

$$

ANZ835-935-AMZ111-154-330-350-352-354-370-450-454-472-171400-
...C-MAN AND BUOY OBSERVATIONS...

STATION/POSITION TIME  TEMP    WIND        PRES    WAVE   SWELL
                       AIR SEA DIR/SP/G            HT/PER HT/PER/DIR
                 (UTC) (F)     (DEG/KT/KT) (MB)    (FT/S) (FT/S/D)
BUOY 41004       1300   58 73  340/ 16/ 19 1019.7R   4/ 6   2/11
BUOY 41008       1300   52 58  330/ 12/ 16 1021.5R   2/ 3
FOLLY BEACH CMAN 1300   46     300/  8/ 11 1021.3R
CAPERS NEARSHORE 1200   49     330/ 14/ 16   N/A
FRIPP NEARSHORE  NOT AVBL


STATION/POSITION TIME  TEMP    WIND        PRES    WAVE   SWELL
                       AIR SEA DIR/SP/G            HT/PER HT/PER/DIR
                 (UTC) (F)     (DEG/KT/KT) (MB)    (FT/S) (FT/S/D)
5E ST. MARYS GA  1300      60                N/A     2/12
FRYING PAN BUOY  1300   56 64  330/ 16/ 19 1019.8R   4/ 6   2/210/ 7
BUOY 41025       1300   54                 1016.7R   6/ 8
CAPE LOOKOUT NC  1300   51     310/ 10/ 13 1018.0R
BUOY 41002       1250   70 73  300/ 21/ 27 1017.4R  10/ 8
BUOY 41010       1300   72 76  280/ 17/ 19 1020.2R   6/ 6   2/ 80/10
ST AUGUSTINE FL  1300   51     320/  7/  9 1022.6R


$$



USA.gov is the U.S. government's official web portal to all federal, state and local government web resources and services.